This is the latest recevied weather packets stored in our database for station/object K1BWE-1. If no packets are shown the sender has not sent any weather packets the latest 10 day(s).
| Time | Temp. | Humidity | Pressure | Rain* | Wind** | Luminosity | Snow |
|---|---|---|---|---|---|---|---|
| 1777762320 | 30.56° C | 19% | 1013.8 hPa | 0 mm | - | 396 W/m² | - |
| 1777762016 | 30.56° C | 18% | 1014 hPa | 0 mm | - | 581 W/m² | - |
| 1777761713 | 30.56° C | 18% | 1013.8 hPa | 0 mm | - | 646 W/m² | - |
| 1777761411 | 30.56° C | 19% | 1013.6 hPa | 0 mm | - | 521 W/m² | - |
| 1777761109 | 31.11° C | 19% | 1013.8 hPa | 0 mm | - | 505 W/m² | - |
| 1777760807 | 31.67° C | 18% | 1013.8 hPa | 0 mm | - | 673 W/m² | - |
| 1777760503 | 31.67° C | 20% | 1014 hPa | 0 mm | - | 669 W/m² | - |
| 1777760198 | 31.67° C | 20% | 1014.2 hPa | 0 mm | - | 621 W/m² | - |
| 1777759896 | 31.11° C | 17% | 1014 hPa | 0 mm | - | 689 W/m² | - |
| 1777759591 | 31.11° C | 17% | 1014.1 hPa | 0 mm | - | 727 W/m² | - |
| 1777759282 | 30° C | 20% | 1014.4 hPa | 0 mm | - | 734 W/m² | - |
| 1777758980 | 30° C | 19% | 1014.4 hPa | 0 mm | - | 706 W/m² | - |
| 1777758677 | 29.44° C | 20% | 1014.5 hPa | 0 mm | - | 731 W/m² | - |
| 1777758373 | 28.89° C | 20% | 1014.4 hPa | 0 mm | - | 466 W/m² | - |
| 1777758071 | 29.44° C | 20% | 1014.7 hPa | 0 mm | - | 252 W/m² | - |
| 1777757768 | 29.44° C | 20% | 1015.2 hPa | 0 mm | - | 507 W/m² | - |
| 1777757465 | 29.44° C | 20% | 1014.8 hPa | 0 mm | - | 351 W/m² | - |
| 1777757164 | 30° C | 22% | 1014.7 hPa | 0 mm | - | 534 W/m² | - |
| 1777756861 | 29.44° C | 21% | 1014.8 hPa | 0 mm | - | 888 W/m² | - |
| 1777756556 | 30.56° C | 19% | 1015.1 hPa | 0 mm | - | 900 W/m² | - |
| 1777756254 | 30.56° C | 19% | 1014.9 hPa | 0 mm | - | 883 W/m² | - |
| 1777755951 | 29.44° C | 20% | 1014.8 hPa | 0 mm | - | 918 W/m² | - |
| 1777755648 | 30° C | 20% | 1015.1 hPa | 0 mm | - | 920 W/m² | - |
| 1777755344 | 28.89° C | 21% | 1015.2 hPa | 0 mm | - | 927 W/m² | - |
| 1777755042 | 28.33° C | 20% | 1015.4 hPa | 0 mm | - | 619 W/m² | - |
* Rain latest hour (hover to see other rain measurements)
** Current wind speed in m/s (hover to see current wind gust speed)